Wind_Speed
15 15 16 17 17 18 19 19 18 17 15 15 15 15 15 16 16 18 17 15 14 13 13 13 13 13 14 15 14 14 14 12 11
16 16 15 15 17 18 19 18 16 15 15 14 15 15 16 16 16 17 17 15 15 15 14 14 11 13 16 17 16 15 16 16 15
16 14 15 15 15 16 17 14 12 12 13 14 14 15 16 16 16 17 18 17 16 16 16 16 18 17 17 18 18 18 17 17 16
15 15 16 14 14 15 15 13 11 11 12 14 15 15 16 16 15 15 15 16 17 16 17 17 18 18 18 18 16 15 19 19 18
16 16 15 13 13 14 14 15 14 12 13 14 15 16 17 17 16 15 14 14 16 16 15 16 16 17 16 17 19 19 17 15 17
15 15 15 14 14 15 15 15 16 15 15 16 16 17 18 17 16 16 16 15 14 15 15 14 16 16 16 17 18 19 20 21 20
16 16 17 18 17 18 17 17 17 18 17 17 17 17 18 18 18 18 17 16 15 15 16 16 16 18 17 18 18 18 19 19 20
17 17 19 20 20 21 21 19 18 17 18 17 18 19 17 16 18 19 18 17 16 17 16 17 18 18 18 19 19 18 19 19 19
18 19 21 21 22 23 23 22 21 20 18 18 18 17 17 16 16 17 17 18 18 17 18 18 19 19 19 19 19 18 19 19 20
20 22 22 23 24 24 24 23 22 21 21 20 19 19 17 17 17 18 19 18 19 19 19 18 19 20 20 20 19 18 19 20 20
22 24 24 25 25 24 23 23 22 20 21 22 22 22 20 18 17 18 20 20 20 20 20 20 19 20 20 20 20 18 19 19 20
24 25 25 24 24 23 23 23 21 20 20 20 21 22 23 20 18 18 19 21 21 21 21 21 21 21 21 21 20 20 20 21 21
24 24 24 24 23 23 23 22 23 21 20 20 19 18 19 21 17 17 18 18 20 20 22 22 21 22 22 22 22 21 21 22 22
24 24 24 24 24 24 24 23 22 21 21 20 19 17 17 16 15 14 15 16 16 17 18 19 20 21 21 21 22 21 22 22 23
24 24 25 26 26 26 25 24 24 21 20 20 19 17 17 17 16 14 13 14 15 15 16 18 18 19 21 20 21 21 21 22 22
26 27 27 27 26 26 24 23 23 24 21 20 21 19 17 17 16 16 16 15 15 16 16 17 18 19 20 20 20 21 21 21 22
27 28 28 27 26 26 25 24 23 23 22 21 19 18 18 18 17 18 18 18 18 17 17 19 19 20 21 22 22 22 22 22 23
29 29 28 28 27 26 26 25 24 22 24 23 22 22 21 19 20 20 21 20 20 21 21 20 21 22 23 24 24 24 25 25 25
28 28 29 28 27 26 26 26 25 24 24 24 25 25 26 25 22 18 20 22 22 22 22 22 23 25 26 27 28 28 27 28 28
29 30 30 29 28 27 26 26 26 25 24 23 23 23 25 27 30 24 21 23 25 26 26 26 26 26 26 27 28 28 28 28 28
Wind_Direction
326 324 320 318 316 313 309 306 303 302 299 299 297 295 291 286 287 288 287 289 287 280 273 271 259 248 254 261 256 255 256 261 265
325 324 322 323 324 323 316 308 306 303 301 299 298 295 291 291 289 286 287 286 278 278 276 272 267 262 252 253 256 256 256 255 259
325 323 321 323 331 334 333 322 311 306 303 300 297 294 292 292 291 287 283 281 277 273 270 267 265 263 255 253 251 255 256 255 255
323 321 321 322 329 333 333 327 317 305 299 296 294 291 288 288 287 286 284 281 278 271 270 271 270 267 261 259 251 250 248 255 255
324 326 324 320 323 325 328 325 317 310 300 296 293 289 285 285 288 282 278 274 273 276 271 267 267 266 260 255 252 253 245 242 248
318 320 323 326 322 316 315 314 313 308 303 296 291 289 287 282 278 277 274 275 277 274 271 264 261 262 259 259 258 256 255 254 250
315 317 320 323 322 316 310 307 307 306 302 297 293 289 289 284 276 271 270 268 270 271 269 266 261 260 261 261 262 261 261 259 256
314 316 319 321 320 315 309 303 299 298 299 297 296 294 291 291 285 275 272 267 266 266 269 270 267 265 263 262 263 260 260 259 259
316 318 320 320 320 317 312 305 299 295 292 290 290 290 290 285 283 281 273 272 269 269 271 270 272 270 266 265 265 263 259 257 255
318 319 321 321 319 316 313 308 301 294 289 285 282 285 283 283 280 277 276 273 273 273 273 272 273 274 275 272 269 265 263 261 259
317 319 321 320 320 318 315 311 309 305 297 289 285 281 277 276 275 273 273 273 273 272 272 273 272 272 272 272 270 268 266 264 263
317 319 319 321 320 319 316 311 309 309 306 298 289 284 284 279 276 275 271 273 274 275 274 273 272 270 268 268 268 267 266 265 264
315 317 318 319 319 319 316 313 310 308 306 303 298 291 285 283 278 275 274 270 272 275 277 277 275 272 270 269 268 266 265 264 263
312 315 316 316 315 314 313 311 309 307 305 301 298 295 291 285 280 274 275 277 274 274 276 275 273 272 270 268 266 265 264 264 263
311 312 312 313 312 312 311 309 308 305 301 297 293 292 289 286 284 279 271 271 276 275 272 274 273 273 272 270 270 268 265 264 263
309 310 311 312 311 309 308 308 307 304 302 298 297 293 291 289 288 285 281 276 273 276 278 275 274 274 273 272 270 269 266 265 264
306 308 309 308 307 306 306 306 303 301 299 296 291 286 288 290 286 284 282 280 276 271 269 270 269 268 268 268 267 266 266 264 262
307 307 306 306 307 306 305 303 302 299 298 296 294 290 284 281 284 286 285 281 276 273 269 269 271 272 271 269 267 266 265 265 264
305 306 307 307 306 304 302 301 299 298 296 297 297 296 294 292 284 283 284 282 282 281 281 278 274 271 269 268 268 267 265 264 263
309 308 308 307 305 302 300 299 298 297 296 296 295 296 298 299 295 288 281 285 288 288 286 282 277 274 272 271 269 268 266 264 262
Height
3167 3165 3163 3160 3158 3156 3153 3151 3149 3148 3147 3146 3145 3144 3143 3142 3142 3140 3140 3140 3140 3140 3140 3140 3140 3141 3141 3140 3141 3141 3141 3142 3142
3165 3163 3161 3158 3156 3153 3150 3147 3146 3145 3144 3143 3142 3141 3140 3139 3139 3137 3137 3137 3136 3136 3136 3137 3137 3136 3137 3137 3138 3137 3138 3138 3139
3163 3161 3159 3156 3154 3151 3148 3145 3143 3142 3141 3140 3139 3138 3137 3136 3135 3135 3133 3133 3133 3132 3132 3133 3132 3132 3132 3133 3134 3134 3134 3135 3136
3162 3160 3157 3154 3152 3149 3147 3145 3142 3140 3139 3137 3136 3135 3134 3133 3132 3131 3130 3129 3129 3129 3129 3129 3128 3129 3129 3129 3129 3130 3130 3131 3132
3160 3158 3155 3152 3150 3148 3145 3143 3141 3138 3136 3134 3134 3132 3131 3130 3129 3128 3127 3126 3126 3125 3125 3125 3124 3124 3124 3124 3125 3125 3126 3126 3127
3158 3156 3153 3151 3148 3146 3144 3141 3139 3137 3134 3132 3130 3129 3128 3127 3126 3124 3123 3122 3122 3122 3122 3122 3121 3121 3121 3121 3121 3121 3122 3122 3123
3157 3154 3151 3148 3145 3144 3141 3138 3136 3134 3132 3129 3128 3126 3125 3124 3122 3121 3119 3118 3118 3117 3118 3118 3117 3117 3117 3117 3117 3117 3118 3118 3118
3154 3152 3149 3146 3143 3141 3138 3136 3133 3130 3128 3127 3125 3123 3121 3120 3119 3117 3116 3115 3114 3114 3113 3114 3113 3112 3112 3112 3113 3113 3113 3113 3113
3151 3149 3146 3143 3139 3137 3134 3132 3129 3127 3125 3122 3120 3119 3118 3117 3115 3115 3113 3113 3112 3111 3110 3109 3109 3108 3108 3108 3108 3108 3108 3108 3108
3147 3145 3141 3139 3136 3133 3130 3127 3124 3122 3120 3118 3115 3114 3113 3113 3112 3111 3110 3109 3108 3107 3106 3105 3105 3104 3104 3104 3104 3104 3103 3103 3103
3144 3141 3137 3135 3132 3129 3126 3123 3120 3117 3115 3113 3111 3109 3108 3108 3107 3107 3105 3104 3104 3103 3102 3101 3100 3100 3099 3100 3099 3099 3098 3098 3098
3140 3137 3134 3131 3128 3125 3123 3120 3117 3113 3111 3108 3106 3104 3103 3103 3102 3101 3100 3099 3099 3098 3097 3096 3096 3095 3094 3094 3094 3094 3093 3092 3092
3136 3133 3130 3127 3124 3121 3119 3116 3112 3109 3107 3104 3101 3099 3098 3096 3097 3096 3095 3094 3093 3092 3092 3092 3091 3090 3090 3089 3089 3088 3088 3088 3087
3132 3129 3126 3123 3120 3117 3115 3112 3110 3106 3104 3101 3099 3096 3094 3093 3091 3091 3089 3089 3088 3086 3086 3086 3085 3084 3084 3083 3083 3083 3082 3082 3082
3127 3125 3122 3119 3116 3113 3111 3108 3105 3103 3101 3098 3095 3093 3091 3089 3088 3086 3084 3083 3083 3082 3081 3080 3080 3079 3079 3078 3077 3077 3077 3076 3076
3123 3120 3117 3115 3112 3109 3106 3103 3101 3097 3096 3094 3091 3090 3087 3085 3084 3082 3081 3079 3077 3076 3076 3076 3075 3074 3073 3072 3071 3071 3071 3071 3070
3119 3116 3113 3110 3107 3104 3101 3099 3097 3094 3091 3089 3088 3086 3085 3082 3080 3078 3077 3076 3074 3072 3070 3070 3069 3068 3067 3067 3066 3065 3065 3065 3064
3113 3111 3108 3105 3102 3099 3097 3094 3092 3090 3086 3084 3083 3080 3079 3077 3076 3074 3072 3071 3070 3068 3066 3064 3063 3061 3061 3060 3059 3058 3058 3058 3057
3109 3106 3103 3100 3097 3095 3092 3089 3087 3085 3083 3080 3077 3075 3072 3070 3070 3069 3066 3064 3063 3062 3061 3059 3058 3055 3054 3053 3052 3051 3050 3050 3050
3105 3101 3098 3095 3092 3090 3087 3084 3082 3080 3078 3075 3073 3070 3067 3064 3060 3062 3063 3060 3058 3056 3054 3053 3051 3049 3047 3046 3044 3043 3043 3042 3041